Tracking 19795 objects as of 20-Jul-2019
HD Live streaming from Space Station
objects crossing your sky now

URSA MAIOR

Track URSA MAIOR now!
10-day predictions
URSA MAIOR is classified as:


NORAD ID: 42776
Int'l Code: 2017-036M
Perigee: 497.8 km
Apogee: 519.1 km
Inclination: 97.3 °
Period: 94.6 minutes
Semi major axis: 6879 km
RCS: Unknown
Launch date: June 23, 2017
Source: Italy (IT)
Launch site: SRIHARIKOTA (SRI)

Uplink (MHz):
Downlink (MHz): 435.950
Beacon (MHz):
Mode: 9600bps FSK
Call sign: URSAMR
Status: Active

aabbcc
Your satellite tracking list
Your tracking list is empty




NASA's NSSDC Master Catalog

Two Line Element Set (TLE):
1 42776U 17036M   19201.19174712  .00000481  00000-0  24349-4 0  9997
2 42776  97.3482 257.3600 0015506 108.0556 252.2371 15.21499951115001
Source of the keplerian elements: AMSAT